Terminal Aerodrome Forecast
Issued by NWS Pueblo, CO

Home | Current Version | Previous Version | Text Only | Print | Product List | Glossary On
Versions: 1 2 3 4 5 6 7 8 9 10 11 12 13 14 15 16 17 18 19 20 21 22 23 24 25 26 27 28 29 30 31 32 33 34 35 36 37 38 39 40 41 42 43 44 45 46 47 48 49 50
000
FTUS45 KPUB 191125
TAFCOS
TAF
KCOS 191125Z 1912/2012 35025G35KT P6SM VCSH SCT020 BKN040
      TEMPO 1912/1914 -SHRASN BKN020
     FM191500 35018G28KT P6SM SCT040 BKN080
     FM191900 36014KT P6SM SCT050 BKN090
     FM200200 35008KT P6SM SCT090 BKN140=

USA.gov is the U.S. government's official web portal to all federal, state and local government web resources and services.